Weather History for KCDD - August, 2013

Change the Weather History Date:

Saturday, August 3, 2013

  Actual Average Record
Temperature  
Mean Temperature 54 °F -  
Max Temperature 69 °F 74 °F 87 °F (2001)
Min Temperature 39 °F 53 °F 39 °F (2013)
Degree Days  
Heating Degree Days 11    
Growing Degree Days 4 (Base 50)    
Moisture  
Dew Point 45 °F    
Average Humidity 75    
Maximum Humidity 100    
Minimum Humidity 43    
Precipitation  
Precipitation 0.00 in - - ()
Sea Level Pressure  
Sea Level Pressure 30.16 in    
Wind  
Wind Speed 2 mph (NNW)    
Max Wind Speed 10 mph    
Max Gust Speed 16 mph    
Visibility 10 miles    
Events      
Averages and records for this station are not official NWS values.
T = Trace of Precipitation, MM = Missing Value Source: NWS Daily Summary

Daily Weather History Graph

Daily Weather History Graph

Search for Another Location

Airport or City:

Trip Planner

Search our weather history database for the weather conditions in past years. The results will help you decide how hot, cold, wet, or windy it might be!

Date:

Astronomy

Aug. 03, 2013 Rise Set
Actual Time 5:48 AM CDT 8:43 PM CDT
Civil Twilight 5:11 AM CDT 9:19 PM CDT
Nautical Twilight 4:25 AM CDT 10:05 PM CDT
Astronomical Twilight 3:28 AM CDT 11:01 PM CDT
Moon 2:54 AM CDT 6:27 PM CDT
Length of Visible Light 16h 07m
Length of Day
14h 54m
Waning Crescent, 9% of the Moon is Illuminated
Aug 3
Waning Crescent
Aug 6
New
Aug 14
First Quarter
Aug 20
Full
Aug 28
Last Quarter

Hourly Weather History & Observations

Time (CDT) Temp. Dew Point Humidity Pressure Visibility Wind Dir Wind Speed Gust Speed Precip Events Conditions
12:12 AM 44.6 °F 42.8 °F 93% 30.06 in 10.0 mi Calm Calm - N/A   Clear
12:32 AM 44.6 °F 41.0 °F 87% 30.06 in 10.0 mi Calm Calm - N/A   Clear
12:52 AM 44.6 °F 41.0 °F 87% 30.06 in 10.0 mi Calm Calm - N/A   Clear
1:12 AM 44.6 °F 41.0 °F 87% 30.07 in 10.0 mi Calm Calm - N/A   Clear
1:32 AM 42.8 °F 41.0 °F 93% 30.07 in 10.0 mi Calm Calm - N/A   Scattered Clouds
1:52 AM 42.8 °F 41.0 °F 93% 30.07 in 10.0 mi Calm Calm - N/A   Scattered Clouds
2:12 AM 42.8 °F 41.0 °F 93% 30.07 in 10.0 mi Calm Calm - N/A   Mostly Cloudy
2:32 AM 44.6 °F 42.8 °F 93% 30.08 in 10.0 mi Calm Calm - N/A   Scattered Clouds
2:52 AM 42.8 °F 41.0 °F 93% 30.08 in 10.0 mi Calm Calm - N/A   Scattered Clouds
3:12 AM 42.8 °F 41.0 °F 93% 30.08 in 10.0 mi Calm Calm - N/A   Mostly Cloudy
3:32 AM 42.8 °F 42.8 °F 100% 30.08 in 10.0 mi Calm Calm - N/A   Overcast
3:52 AM 42.8 °F 41.0 °F 93% 30.09 in 10.0 mi Calm Calm - N/A   Scattered Clouds
4:12 AM 42.8 °F 39.2 °F 87% 30.09 in 10.0 mi Calm Calm - N/A   Clear
4:32 AM 41.0 °F 39.2 °F 93% 30.09 in 10.0 mi Calm Calm - N/A   Clear
4:52 AM 41.0 °F 39.2 °F 93% 30.10 in 10.0 mi Calm Calm - N/A   Clear
5:12 AM 41.0 °F 39.2 °F 93% 30.10 in 10.0 mi Calm Calm - N/A   Scattered Clouds
5:33 AM 41.0 °F 39.2 °F 93% 30.11 in 10.0 mi Calm Calm - N/A   Scattered Clouds
5:52 AM 41.0 °F 39.2 °F 93% 30.11 in 10.0 mi Calm Calm - N/A   Scattered Clouds
6:12 AM 39.2 °F 39.2 °F 100% 30.12 in 10.0 mi Calm Calm - N/A   Clear
6:32 AM 41.0 °F 39.2 °F 93% 30.12 in 10.0 mi Calm Calm - N/A   Clear
6:52 AM 41.0 °F 39.2 °F 93% 30.12 in 10.0 mi Calm Calm - N/A   Clear
7:12 AM 42.8 °F 41.0 °F 93% 30.13 in 10.0 mi Calm Calm - N/A   Clear
7:32 AM 48.2 °F 46.4 °F 93% 30.13 in 10.0 mi Calm Calm - N/A   Clear
7:53 AM 50.0 °F 48.2 °F 94% 30.13 in 10.0 mi Calm Calm - N/A   Clear
8:12 AM 53.6 °F 51.8 °F 94% 30.14 in 10.0 mi NNW 4.6 mph - N/A   Clear
8:32 AM 55.4 °F 53.6 °F 94% 30.14 in 10.0 mi NW 4.6 mph - N/A   Clear
8:52 AM 59.0 °F 53.6 °F 82% 30.14 in 10.0 mi NNW 4.6 mph - N/A   Scattered Clouds
9:12 AM 60.8 °F 51.8 °F 72% 30.15 in 10.0 mi North 5.8 mph - N/A   Mostly Cloudy
9:32 AM 60.8 °F 53.6 °F 77% 30.16 in 10.0 mi NNW 8.1 mph - N/A   Overcast
9:52 AM 59.0 °F 51.8 °F 77% 30.16 in 10.0 mi NNW 5.8 mph - N/A   Overcast
10:12 AM 60.8 °F 51.8 °F 72% 30.17 in 10.0 mi NNW 3.5 mph - N/A   Overcast
10:32 AM 60.8 °F 51.8 °F 72% 30.17 in 10.0 mi North 9.2 mph - N/A   Overcast
10:52 AM 60.8 °F 51.8 °F 72% 30.18 in 10.0 mi North 4.6 mph - N/A   Overcast
11:12 AM 62.6 °F 53.6 °F 72% 30.18 in 10.0 mi North 5.8 mph - N/A   Overcast
11:32 AM 62.6 °F 53.6 °F 72% 30.18 in 10.0 mi NW 6.9 mph - N/A   Overcast
11:52 AM 62.6 °F 53.6 °F 72% 30.18 in 10.0 mi North 6.9 mph - N/A   Overcast
12:13 PM 62.6 °F 51.8 °F 68% 30.18 in 10.0 mi NNW 4.6 mph - N/A   Overcast
12:32 PM 64.4 °F 53.6 °F 68% 30.18 in 10.0 mi NNW 5.8 mph - N/A   Mostly Cloudy
12:52 PM 66.2 °F 51.8 °F 60% 30.18 in 10.0 mi NW 6.9 mph - N/A   Scattered Clouds
1:12 PM 66.2 °F 51.8 °F 60% 30.18 in 10.0 mi North 5.8 mph - N/A   Scattered Clouds
1:32 PM 66.2 °F 51.8 °F 60% 30.19 in 10.0 mi NNW 6.9 mph - N/A   Scattered Clouds
1:52 PM 68.0 °F 51.8 °F 56% 30.19 in 10.0 mi NW 9.2 mph 16.1 mph N/A   Scattered Clouds
2:12 PM 69.8 °F 51.8 °F 53% 30.19 in 10.0 mi North 6.9 mph - N/A   Scattered Clouds
2:33 PM 69.8 °F 48.2 °F 46% 30.19 in 10.0 mi NNW 6.9 mph - N/A   Scattered Clouds
2:52 PM 68.0 °F 46.4 °F 46% 30.19 in 10.0 mi NNW 9.2 mph - N/A   Mostly Cloudy
3:12 PM 68.0 °F 48.2 °F 49% 30.19 in 10.0 mi North 6.9 mph - N/A   Mostly Cloudy
3:32 PM 69.8 °F 46.4 °F 43% 30.19 in 10.0 mi NW 10.4 mph - N/A   Scattered Clouds
3:53 PM 66.2 °F 46.4 °F 49% 30.19 in 10.0 mi North 4.6 mph - N/A   Scattered Clouds
4:12 PM 66.2 °F 48.2 °F 52% 30.19 in 10.0 mi North 6.9 mph - N/A   Mostly Cloudy
4:32 PM 66.2 °F 48.2 °F 52% 30.19 in 10.0 mi NNW 6.9 mph - N/A   Scattered Clouds
4:52 PM 68.0 °F 46.4 °F 46% 30.20 in 10.0 mi NNW 9.2 mph - N/A   Mostly Cloudy
5:12 PM 64.4 °F 46.4 °F 52% 30.20 in 10.0 mi NNW 4.6 mph - N/A   Scattered Clouds
5:32 PM 66.2 °F 46.4 °F 49% 30.20 in 10.0 mi North 6.9 mph - N/A   Clear
5:52 PM 66.2 °F 46.4 °F 49% 30.20 in 10.0 mi NW 9.2 mph - N/A   Clear
6:12 PM 66.2 °F 44.6 °F 46% 30.21 in 10.0 mi North 6.9 mph - N/A   Clear
6:32 PM 66.2 °F 46.4 °F 49% 30.21 in 10.0 mi North 6.9 mph - N/A   Scattered Clouds
6:52 PM 64.4 °F 46.4 °F 52% 30.21 in 10.0 mi North 3.5 mph - N/A   Scattered Clouds
7:12 PM 64.4 °F 48.2 °F 56% 30.21 in 10.0 mi North 4.6 mph - N/A   Scattered Clouds
7:32 PM 62.6 °F 46.4 °F 55% 30.21 in 10.0 mi Calm Calm - N/A   Scattered Clouds
7:52 PM 60.8 °F 46.4 °F 59% 30.21 in 10.0 mi Calm Calm - N/A   Clear
8:12 PM 60.8 °F 46.4 °F 59% 30.21 in 10.0 mi Calm Calm - N/A   Clear
8:32 PM 53.6 °F 44.6 °F 72% 30.21 in 10.0 mi Calm Calm - N/A   Clear
8:52 PM 51.8 °F 42.8 °F 71% 30.21 in 10.0 mi Calm Calm - N/A   Clear
9:12 PM 48.2 °F 42.8 °F 82% 30.22 in 10.0 mi Calm Calm - N/A   Clear
9:32 PM 46.4 °F 41.0 °F 81% 30.22 in 10.0 mi Calm Calm - N/A   Clear
9:52 PM 46.4 °F 39.2 °F 76% 30.23 in 10.0 mi Calm Calm - N/A   Clear
10:12 PM 44.6 °F 39.2 °F 81% 30.23 in 10.0 mi Calm Calm - N/A   Clear
10:32 PM 44.6 °F 39.2 °F 81% 30.23 in 10.0 mi Calm Calm - N/A   Clear
10:52 PM 44.6 °F 39.2 °F 81% 30.23 in 10.0 mi Calm Calm - N/A   Clear
11:12 PM 42.8 °F 39.2 °F 87% 30.24 in 10.0 mi Calm Calm - N/A   Clear
11:32 PM 42.8 °F 39.2 °F 87% 30.24 in 10.0 mi Calm Calm - N/A   Clear
11:52 PM 42.8 °F 39.2 °F 87% 30.24 in 10.0 mi Calm Calm - N/A   Clear